Zurück zum Katalog

CZ-3B DEB

LostHEO
NORAD 40844·DEBRIS·🇨🇳 China

Gestartet Dec 19, 2011 von Xichang Satellite Launch Center

Loading…

Nächste Überflüge (nächste 24 Stunden)

TLE

VeraltetSource: Space-Track

Epoche: May 27, 2022, 13:27 UTC

1 40844U 11077Z   22147.56056962 -.00000329  00000-0  52200-3 0  9998
2 40844  23.0834   0.4248 7551615 236.1298  29.1831  1.82109207 48793

Verfolge CZ-3B DEB in Echtzeit mit AllMySat

Download on the App Store